Louisville Bowman, KY

9:04 PM EDT on May 23, 2017 (GMT -0400)
Bowman

Weather History for KLOU - September, 2012

Change the Weather History Date:

Tuesday, September 25, 2012

  Actual Average Record
Temperature  
Mean Temperature 64 °F 65 °F  
Max Temperature 74 °F 76 °F 91 °F (2007)
Min Temperature 54 °F 55 °F 36 °F (1950)
Degree Days  
Heating Degree Days 1 3  
Month to date heating degree days 37 19  
Since 1 July heating degree days 37 19  
Cooling Degree Days 0 3  
Month to date cooling degree days 146 160  
Year to date cooling degree days 1815 1399  
Growing Degree Days 13 (Base 50)    
Moisture  
Dew Point 54 °F    
Average Humidity 76    
Maximum Humidity 100    
Minimum Humidity 51    
Precipitation  
Precipitation 0.55 in 0.11 in 1.24 in (2000)
Month to date precipitation 4.08 2.52  
Year to date precipitation 34.00 34.06  
Sea Level Pressure  
Sea Level Pressure 30.05 in    
Wind  
Wind Speed 4 mph (South)    
Max Wind Speed 25 mph    
Max Gust Speed 32 mph    
Visibility 8 miles    
Events Rain , Thunderstorm    
T = Trace of Precipitation, MM = Missing Value Source: NWS Daily Summary

Daily Weather History Graph

Daily Weather History Graph

Search for Another Location

Airport or City:

Trip Planner

Search our weather history database for the weather conditions in past years. The results will help you decide how hot, cold, wet, or windy it might be!

Date:

Astronomy

Sep. 25, 2012 Rise Set
Actual Time 7:33 AM EDT 7:34 PM EDT
Civil Twilight 7:07 AM EDT 8:00 PM EDT
Nautical Twilight 6:36 AM EDT 8:31 PM EDT
Astronomical Twilight 6:05 AM EDT 9:02 PM EDT
Moon 4:55 PM EDT (9/25) 2:57 AM EDT (9/25)
Length of Visible Light 12h 53m
Length of Day
12h 00m
Waxing Gibbous, 80% of the Moon is Illuminated
Sep 25
Waxing Gibbous
Sep 29
Full
Oct 8
Last Quarter
Oct 15
New
Oct 21
First Quarter

Hourly Weather History & Observations

Time (EDT) Temp. Dew Point Humidity Pressure Visibility Wind Dir Wind Speed Gust Speed Precip Events Conditions
12:53 AM 55.0 °F 43.0 °F 64% 30.08 in 10.0 mi Calm Calm - N/A   Mostly Cloudy
1:53 AM 55.9 °F 43.0 °F 62% 30.07 in 10.0 mi Calm Calm - N/A   Overcast
2:53 AM 57.9 °F 43.0 °F 58% 30.06 in 10.0 mi Calm Calm - N/A   Overcast
3:53 AM 59.0 °F 43.0 °F 55% 30.06 in 10.0 mi South 3.5 mph - N/A   Overcast
4:53 AM 60.1 °F 43.0 °F 53% 30.05 in 10.0 mi SSE 4.6 mph - N/A   Overcast
5:53 AM 57.9 °F 43.0 °F 58% 30.03 in 10.0 mi SE 4.6 mph - N/A   Clear
6:53 AM 57.0 °F 45.0 °F 64% 30.03 in 10.0 mi SSE 5.8 mph - N/A   Clear
7:53 AM 57.9 °F 45.0 °F 62% 30.05 in 10.0 mi Variable 3.5 mph - N/A   Mostly Cloudy
8:53 AM 57.9 °F 48.9 °F 72% 30.06 in 10.0 mi Calm Calm - 0.01 in Rain Light Rain
9:07 AM 55.4 °F 51.8 °F 88% 30.09 in 3.0 mi SSW 5.8 mph - 0.05 in Rain , Thunderstorm Heavy Rain
9:45 AM 53.6 °F 51.8 °F 94% 30.09 in 2.5 mi South 4.6 mph - 0.20 in Rain , Thunderstorm Thunderstorms and Rain
9:53 AM 54.0 °F 53.1 °F 97% 30.07 in 2.5 mi ESE 4.6 mph - 0.23 in Rain , Thunderstorm Thunderstorms and Rain
10:03 AM 53.6 °F 53.6 °F 100% 30.09 in 4.0 mi South 6.9 mph - 0.02 in Rain , Thunderstorm Light Rain
10:30 AM 53.6 °F 53.6 °F 100% 30.10 in 5.0 mi South 9.2 mph - 0.07 in Rain Rain
10:53 AM 54.0 °F 53.1 °F 97% 30.10 in 4.0 mi South 6.9 mph - 0.11 in Rain Light Rain
11:05 AM 53.6 °F 53.6 °F 100% 30.10 in 4.0 mi SSE 9.2 mph - 0.02 in Rain Light Rain
11:16 AM 53.6 °F 53.6 °F 100% 30.08 in 6.0 mi Variable 4.6 mph - 0.03 in Rain , Thunderstorm Light Thunderstorms and Rain
11:27 AM 55.4 °F 53.6 °F 94% 30.10 in 5.0 mi South 6.9 mph - 0.04 in Rain Light Rain
11:45 AM 55.4 °F 55.4 °F 100% 30.11 in 5.0 mi South 6.9 mph - 0.06 in Rain , Thunderstorm Light Rain
11:53 AM 55.9 °F 55.0 °F 97% 30.09 in 5.0 mi Calm Calm - 0.07 in Rain , Thunderstorm Light Rain
12:00 PM 55.4 °F 55.4 °F 100% 30.09 in 6.0 mi South 4.6 mph - 0.00 in Rain Light Rain
12:53 PM 57.0 °F 57.0 °F 100% 30.05 in 7.0 mi South 6.9 mph - 0.00 in   Overcast
1:38 PM 60.8 °F 59.0 °F 94% 30.06 in 10.0 mi South 8.1 mph - 0.01 in   Overcast
1:53 PM 61.0 °F 60.1 °F 97% 30.04 in 10.0 mi South 5.8 mph - 0.01 in   Overcast
2:15 PM 62.6 °F 60.8 °F 94% 30.04 in 10.0 mi South 8.1 mph - N/A   Overcast
2:53 PM 64.4 °F 60.8 °F 88% 30.02 in 10.0 mi South 10.4 mph - N/A   Mostly Cloudy
3:50 PM 71.6 °F 59.0 °F 64% 29.98 in 10.0 mi South 15.0 mph 20.7 mph N/A   Scattered Clouds
3:53 PM 70.0 °F 59.0 °F 68% 29.98 in 10.0 mi South 11.5 mph 20.7 mph N/A   Scattered Clouds
4:53 PM 73.9 °F 60.1 °F 62% 29.97 in 10.0 mi Variable 4.6 mph - N/A   Clear
5:53 PM 72.0 °F 59.0 °F 64% 29.99 in 10.0 mi SSW 8.1 mph - N/A   Clear
6:53 PM 73.0 °F 59.0 °F 61% 30.00 in 10.0 mi Calm Calm - N/A   Mostly Cloudy
7:53 PM 71.1 °F 60.1 °F 68% 29.99 in 10.0 mi East 4.6 mph - N/A   Overcast
8:53 PM 69.1 °F 59.0 °F 70% 29.99 in 10.0 mi ESE 3.5 mph - N/A   Mostly Cloudy
9:53 PM 68.0 °F 59.0 °F 73% 29.99 in 10.0 mi SSE 3.5 mph - N/A   Clear
10:53 PM 68.0 °F 60.1 °F 76% 30.00 in 10.0 mi SSE 3.5 mph - N/A   Clear
11:50 PM 68.0 °F 60.8 °F 78% 30.02 in 10.0 mi South 5.8 mph - N/A Thunderstorm Mostly Cloudy
11:53 PM 68.0 °F 61.0 °F 78% 30.03 in 10.0 mi South 6.9 mph - N/A Thunderstorm Scattered Clouds